When you browse on this site, cookies collect data to enhance your experience and personalize the content and advertising you see.
Visit our Privacy Policy to learn more. By continuing to use the site, you agree to this use of cookies and data.
  • En España
  • Lista de países
  • Para 7 días
  • Temperatura del agua
  • El tiempo en el mapa
  • Informadores
  • user-avatar
    Iniciar sesión

    Tiempo cada hora Oyem

    Hoy, 31 Mayo, Domingo

    Tiempo Temperatura Precipitaciones Viento Presión Humedad
    00:00 +21°C° 0.7 mm 0 mps 704 mmHg 98%
    01:00 +21°C° 0 mm 0 mps 704 mmHg 98%
    02:00 +21°C° 1.3 mm 0 mps 703 mmHg 98%
    03:00 +21°C° 1.3 mm 0 mps 703 mmHg 99%
    04:00 +20°C° 1.3 mm 0 mps 702 mmHg 99%
    05:00 +21°C° 1.2 mm 0 mps 703 mmHg 99%
    06:00 +21°C° 1.2 mm 0 mps 704 mmHg 99%
    07:00 +21°C° 1.2 mm 0 mps 704 mmHg 98%
    08:00 +22°C° 1.6 mm 0 mps 705 mmHg 95%
    09:00 +24°C° 1.6 mm 0 mps 705 mmHg 91%
    10:00 +25°C° 1.6 mm 0 mps 705 mmHg 88%
    11:00 +25°C° 1.8 mm 0 mps 705 mmHg 88%
    12:00 +25°C° 1.8 mm 0 mps 705 mmHg 89%
    13:00 +25°C° 1.8 mm 0 mps 704 mmHg 89%
    14:00 +26°C° 0.2 mm 0 mps 704 mmHg 81%
    15:00 +27°C° 0.2 mm 0 mps 703 mmHg 73%
    16:00 +28°C° 0.2 mm 0 mps 703 mmHg 65%
    17:00 +26°C° 0.2 mm 0 mps 703 mmHg 74%
    18:00 +26°C° 0.2 mm 1 mps 704 mmHg 82%
    19:00 +25°C° 0.2 mm 1 mps 704 mmHg 91%
    20:00 +24°C° 1.7 mm 1 mps 704 mmHg 93%
    21:00 +23°C° 1.7 mm 1 mps 704 mmHg 96%
    22:00 +23°C° 1.7 mm 1 mps 704 mmHg 98%
    23:00 +21°C° 0.4 mm 0 mps 704 mmHg 98%

    Mañana, 1 Junio, Lunes

    Tiempo Temperatura Precipitaciones Viento Presión Humedad
    00:00 +20°C° 0.4 mm 0 mps 705 mmHg 99%
    01:00 +20°C° 0.4 mm 0 mps 705 mmHg 99%
    02:00 +20°C° 0.3 mm 0 mps 704 mmHg 99%
    03:00 +20°C° 0.3 mm 0 mps 704 mmHg 99%
    04:00 +20°C° 0.3 mm 0 mps 703 mmHg 99%
    05:00 +20°C° 0.6 mm 0 mps 704 mmHg 99%
    06:00 +20°C° 0.6 mm 0 mps 705 mmHg 99%
    07:00 +20°C° 0.6 mm 0 mps 705 mmHg 99%
    08:00 +21°C° 0.6 mm 0 mps 705 mmHg 96%
    09:00 +25°C° 0.6 mm 1 mps 706 mmHg 93%
    10:00 +26°C° 0.6 mm 1 mps 706 mmHg 90%
    11:00 +26°C° 1.2 mm 1 mps 705 mmHg 88%
    12:00 +26°C° 1.2 mm 1 mps 705 mmHg 87%
    13:00 +27°C° 1.2 mm 1 mps 704 mmHg 85%
    14:00 +26°C° 1.2 mm 1 mps 704 mmHg 87%
    15:00 +26°C° 1.2 mm 1 mps 703 mmHg 90%
    16:00 +26°C° 1.2 mm 1 mps 703 mmHg 93%
    17:00 +23°C° 0.3 mm 0 mps 703 mmHg 94%
    18:00 +22°C° 0.3 mm 0 mps 703 mmHg 95%
    19:00 +21°C° 0.3 mm 0 mps 704 mmHg 96%
    20:00 +21°C° 0 mm 0 mps 704 mmHg 96%
    21:00 +21°C° 0 mm 0 mps 704 mmHg 96%
    22:00 +21°C° 0 mm 0 mps 704 mmHg 95%
    23:00 +20°C° 0 mm 0 mps 704 mmHg 96%

    Pasado mañana, 2 Junio, Martes

    Tiempo Temperatura Precipitaciones Viento Presión Humedad
    00:00 +20°C° 0 mm 0 mps 704 mmHg 96%
    01:00 +20°C° 0 mm 0 mps 704 mmHg 96%
    02:00 +20°C° 0 mm 0 mps 704 mmHg 97%
    03:00 +20°C° 0 mm 0 mps 704 mmHg 97%
    04:00 +22°C° 0 mm 1 mps 703 mmHg 97%
    05:00 +22°C° 0 mm 1 mps 704 mmHg 97%
    06:00 +22°C° 0 mm 1 mps 704 mmHg 97%
    07:00 +22°C° 0 mm 1 mps 705 mmHg 97%
    08:00 +24°C° 0.1 mm 1 mps 705 mmHg 89%
    09:00 +26°C° 0.1 mm 1 mps 705 mmHg 82%
    10:00 +28°C° 0.1 mm 1 mps 706 mmHg 74%
    11:00 +29°C° 0.2 mm 1 mps 705 mmHg 69%
    12:00 +30°C° 0.2 mm 1 mps 705 mmHg 63%
    13:00 +31°C° 0.2 mm 1 mps 705 mmHg 58%
    14:00 +30°C° 1.5 mm 1 mps 704 mmHg 67%
    15:00 +29°C° 1.5 mm 1 mps 703 mmHg 77%
    16:00 +26°C° 1.5 mm 0 mps 702 mmHg 86%
    17:00 +25°C° 0.8 mm 0 mps 703 mmHg 89%
    18:00 +23°C° 0.8 mm 0 mps 703 mmHg 92%
    19:00 +22°C° 0.8 mm 0 mps 703 mmHg 95%
    20:00 +22°C° 0.8 mm 0 mps 703 mmHg 96%
    21:00 +21°C° 0.8 mm 0 mps 704 mmHg 97%
    22:00 +21°C° 0.8 mm 0 mps 704 mmHg 98%
    23:00 +21°C° 0.3 mm 0 mps 704 mmHg 98%

    3 Junio, Miércoles

    Tiempo Temperatura Precipitaciones Viento Presión Humedad
    00:00 +23°C° 0.3 mm 1 mps 704 mmHg 98%
    01:00 +22°C° 0.3 mm 1 mps 704 mmHg 99%
    02:00 +22°C° 0.7 mm 1 mps 704 mmHg 99%
    03:00 +22°C° 0.7 mm 1 mps 703 mmHg 99%
    04:00 +22°C° 0.7 mm 1 mps 703 mmHg 99%
    05:00 +20°C° 0.1 mm 0 mps 703 mmHg 99%
    06:00 +20°C° 0.1 mm 0 mps 704 mmHg 98%
    07:00 +21°C° 0.1 mm 0 mps 704 mmHg 98%
    08:00 +23°C° 0.2 mm 0 mps 705 mmHg 89%
    09:00 +25°C° 0.2 mm 0 mps 705 mmHg 80%
    10:00 +27°C° 0.2 mm 0 mps 706 mmHg 72%
    11:00 +29°C° 1.7 mm 1 mps 705 mmHg 74%
    12:00 +29°C° 1.7 mm 1 mps 704 mmHg 77%
    13:00 +29°C° 1.7 mm 1 mps 703 mmHg 79%
    14:00 +28°C° 1.4 mm 1 mps 703 mmHg 82%
    15:00 +28°C° 1.4 mm 1 mps 703 mmHg 85%
    16:00 +26°C° 1.4 mm 0 mps 702 mmHg 88%
    17:00 +24°C° 0.5 mm 0 mps 702 mmHg 90%
    18:00 +23°C° 0.5 mm 0 mps 703 mmHg 92%
    19:00 +22°C° 0.5 mm 0 mps 703 mmHg 94%
    20:00 +22°C° 0.2 mm 0 mps 703 mmHg 95%
    21:00 +23°C° 0.2 mm 1 mps 704 mmHg 95%
    22:00 +23°C° 0.2 mm 1 mps 704 mmHg 96%
    23:00 +23°C° 0 mm 1 mps 704 mmHg 97%

    4 Junio, Jueves

    Tiempo Temperatura Precipitaciones Viento Presión Humedad
    00:00 +23°C° 0 mm 1 mps 703 mmHg 97%
    01:00 +20°C° 0 mm 0 mps 703 mmHg 98%
    02:00 +20°C° 0 mm 0 mps 703 mmHg 98%
    03:00 +20°C° 0 mm 0 mps 703 mmHg 99%
    04:00 +20°C° 0 mm 0 mps 703 mmHg 99%
    05:00 +20°C° 0 mm 0 mps 703 mmHg 99%
    06:00 +20°C° 0 mm 0 mps 704 mmHg 98%
    07:00 +21°C° 0 mm 0 mps 704 mmHg 98%
    08:00 +22°C° 0 mm 0 mps 705 mmHg 91%
    09:00 +24°C° 0 mm 0 mps 705 mmHg 84%
    10:00 +27°C° 0 mm 1 mps 706 mmHg 77%
    11:00 +29°C° 0.2 mm 1 mps 705 mmHg 70%
    12:00 +29°C° 0.2 mm 0 mps 705 mmHg 63%
    13:00 +31°C° 0.2 mm 0 mps 704 mmHg 56%
    14:00 +31°C° 1.3 mm 1 mps 704 mmHg 67%
    15:00 +29°C° 1.3 mm 1 mps 703 mmHg 78%
    16:00 +28°C° 1.3 mm 1 mps 702 mmHg 89%
    17:00 +26°C° 1.7 mm 1 mps 703 mmHg 91%
    18:00 +25°C° 1.7 mm 1 mps 703 mmHg 93%
    19:00 +24°C° 1.7 mm 1 mps 703 mmHg 95%
    20:00 +22°C° 0.3 mm 0 mps 703 mmHg 96%
    21:00 +21°C° 0.3 mm 0 mps 704 mmHg 96%
    22:00 +21°C° 0.3 mm 0 mps 704 mmHg 96%
    23:00 +21°C° 0.6 mm 0 mps 704 mmHg 97%

    5 Junio, Viernes

    Tiempo Temperatura Precipitaciones Viento Presión Humedad
    00:00 +23°C° 0.6 mm 1 mps 704 mmHg 97%
    01:00 +23°C° 0.6 mm 1 mps 704 mmHg 97%
    02:00 +23°C° 0 mm 1 mps 704 mmHg 97%
    03:00 +20°C° 0 mm 0 mps 703 mmHg 98%
    04:00 +20°C° 0 mm 0 mps 703 mmHg 98%
    05:00 +21°C° 0 mm 0 mps 704 mmHg 97%
    06:00 +21°C° 0 mm 0 mps 704 mmHg 97%
    07:00 +21°C° 0 mm 0 mps 704 mmHg 97%
    08:00 +23°C° 0 mm 0 mps 705 mmHg 88%
    09:00 +25°C° 0 mm 0 mps 705 mmHg 80%
    10:00 +27°C° 0 mm 0 mps 706 mmHg 71%
    11:00 +27°C° 0.9 mm 0 mps 705 mmHg 75%
    12:00 +29°C° 0.9 mm 1 mps 704 mmHg 78%
    13:00 +29°C° 0.9 mm 1 mps 704 mmHg 82%
    14:00 +28°C° 1.6 mm 1 mps 703 mmHg 84%
    15:00 +26°C° 1.6 mm 0 mps 703 mmHg 86%
    16:00 +25°C° 1.6 mm 0 mps 703 mmHg 88%
    17:00 +24°C° 0.3 mm 0 mps 703 mmHg 90%
    18:00 +23°C° 0.3 mm 0 mps 703 mmHg 92%
    19:00 +21°C° 0.3 mm 0 mps 703 mmHg 93%
    20:00 +21°C° 0.2 mm 0 mps 704 mmHg 94%
    21:00 +21°C° 0.2 mm 0 mps 704 mmHg 95%
    22:00 +21°C° 0.2 mm 0 mps 705 mmHg 96%
    23:00 +20°C° 0 mm 0 mps 704 mmHg 96%
    Mostrar más